Hlavní strana
METAR-TAF:

METAR-TAF

Letiště :

Eastman, Georgie, Spojené státy americké

zeměpisná šířka: 32-12-59N, zeměpisná délka: 083-07-43W, výška: 93 m

Aktuální stav počasí

Zpráva byla vytvořena před 22 minutami, v 13:10 UTC
Bezvětří
Teplota 13°C
Vlhkost vzduchu 94%
Tlak 1026 hPa
Viditelnost: 16.1 km
Zataženo ve výšce 6000 ft

METAR: KEZM 251310Z AUTO 00000KT 10SM OVC060 13/12 A3029 RMK AO2 T01300116

Čas: 08:32 (13:32 UTC)


TAF: chybějící

Stav a předpovědi počasí z více než 4 000 letišť (zprávy METAR a TAF).

Červené a žluté tečky na mapě představují dostupné meteorologické stanice.

Když kurzor umístíte na tečku, zobrazí se název stanice.

Pak kliknutím zobrazíte stav a předpověď počasí.

Chcete-li změnit mapu, kliknutím na zelené tlačítko se znaménkem +mapu přiblížíte, kliknutím na zelené tlačítko se znaménkem – mapu oddálíte a kliknutím na zelené šipky přejdete na sousední mapy.


METAR-TAF: